Showing default

GLOBALSTAR M001, 25162

Orbit data source: Space-Track

GLOBALSTAR M001, 25162 is a payload satellite owned by Globalstar (US) in LEO that was launched on Sat, 14 Feb 1998 UTC via a DELTA 7420-10C launch vehicle from the Air Force Eastern Test Range (AFETR). Payload-class satellites include a variety of spacecraft equipped with specific instruments for various scientific and technological missions. These include communications satellites like Starlink; space stations such as the ISS; scientific satellites like the Hubble; Earth observation satellites from companies like Planet Labs, Umbra, and HawkEye 360; GPS; miniature CubeSats for education and research; and military/defense satellites.

Loading next visibility...
Identifier
25162, 1998-008A
Orbit
LEO
Country
Flag of UnknownUnknown / GLOB
Related business
Manufacturer
SS/Loral
Mission
Non-operational Commercial Communications
Bus & Motor
LS-400, Unknown motor
Mass
450 kg wet, 380 kg dry
Launch date (UTC)
1998-02-14 (28 years ago)
Launch vehicle
DELTA 7420-10C
Launch site
Air Force Eastern Test Range (AFETR)
Object type
Payload
Rocket body
Debris
Shape & HBR
Box + 2 Pan, 6.0 m
Radar Cross Section
5.587 m², Large (>1 m²)

Expand to show TLE details & history
Last TLE update: 10 hours ago

TLE from 10 hours ago
0 GLOBALSTAR M001
1 25162U 98008A   25310.90522707 -.00000057  00000-0  30041-3 0  9998
2 25162  52.0036 277.8281 0001027 182.1619 204.4054 12.38220151261392
Epoch: 2025-11-06T21:43Z
TLE epoch observation values (Epoch: 2025-11-06T21:43:31.618Z)
Latitude
20.67615°
Longitude
-77.35042°
Altitude
1,515.246 km
Speed
7.11 km/s
True Right ascension
19h 39m 33s
True Declination
20° 34' 25"
Sunlit
Object was in daylight at epoch
Visualization orbit readout
Latitude
Unknown
Longitude
Unknown
Altitude
Unknown
Speed
Unknown
Apparent Right ascension
Unknown
Apparent Declination
Unknown
Sunlit
N/A
Visualization observer readout
Local Sidereal Time
03:48:28
Azimuth
Unknown
Elevation
Unknown
Doppler factor
Unknown
Orbital elements
Apogee altitude
1,515.355 km
Perigee altitude
1,513.733 km
Semi-major axis
7,892.681 km
Eccentricity
0.0001
Inclination
52.0036°
RAAN
277.8281°
Arg. of periapsis
182.1619°
True anomaly
204.40054°
Mean anomaly
204.4054°
Eccentric anomaly
204.40297°
Mean motion
3.09533 °/min
Orbital period
116.3 mins
BSTAR
0.00030041
Loading maneuver chart data...
Computing Atmospheric mass density...
Loading historical data...
Loading historical data...
Loading historical data...
Loading historical data...
Loading historical data...
Loading historical data...
Loading historical data...

Documentation

Showing up to 5 results
|